CW4482 Weather Reports


Display with metric or nautical units.
time (UTC)temp
F
wind
direction
speed
MPH
gust
MPH
rain 1hr
in
rain 24hr
in
rain mn
in
humidity
%
barometer
mb
20260508130041 68 19 0.0 0.0 0.00 0.00 0.00 87 1012.9
20260508124530 68 18 0.0 0.0 0.00 0.00 0.00 87 1012.6
20260508123022 68 14 0.0 0.0 0.00 0.00 0.00 87 1012.8
20260508121526 68 13 0.0 0.0 0.00 0.00 0.00 86 1013.0
20260508120042 68 5 0.0 0.0 0.00 0.00 0.00 86 1012.8
20260508114524 68 5 0.0 0.0 0.00 0.00 0.00 86 1013.0
20260508113029 68 350 0.0 0.0 0.00 0.00 0.00 86 1012.9
20260508111531 68 5 0.0 0.0 0.00 0.00 0.00 85 1012.3
20260508110024 68 5 0.0 0.0 0.00 0.00 0.00 85 1012.7
20260508104549 68 20 0.0 0.0 0.00 0.00 0.00 86 1012.8
20260508103031 68 47 0.0 0.0 0.00 0.00 0.00 86 1012.2
20260508101512 68 13 0.0 0.0 0.00 0.00 0.00 86 1012.6
20260508100037 68 360 0.0 0.0 0.00 0.00 0.00 86 1013.0
20260508094554 68 45 0.0 0.0 0.00 0.00 0.00 87 1011.8
20260508093051 68 35 0.0 0.0 0.00 0.00 0.00 86 1012.4
20260508091532 68 35 0.0 0.0 0.00 0.00 0.00 86 1012.4
20260508090027 68 35 0.0 0.0 0.00 0.00 0.00 85 1012.7
20260508084530 68 24 0.0 0.0 0.00 0.00 0.00 85 1012.8
20260508083030 69 26 0.0 0.0 0.00 0.00 0.00 85 1012.7
20260508081523 69 24 0.0 0.0 0.00 0.00 0.00 84 1012.5
20260508080024 69 24 0.0 0.0 0.00 0.00 0.00 84 1012.9
20260508074512 69 24 0.0 0.0 0.00 0.00 0.00 84 1013.1
20260508073032 69 22 0.0 0.0 0.00 0.00 0.00 84 1012.8
20260508071524 69 18 0.0 0.0 0.00 0.00 0.00 84 1012.8
20260508070023 69 18 0.0 0.0 0.00 0.00 0.00 83 1012.7
20260508064526 69 19 0.0 0.0 0.00 0.00 0.00 84 1012.8
20260508063027 69 21 0.0 0.0 0.00 0.00 0.00 84 1012.9
20260508061526 69 20 0.0 0.0 0.00 0.00 0.00 83 1013.5
20260508060026 69 20 0.0 0.0 0.00 0.00 0.00 83 1012.8
20260508054548 69 20 0.0 0.0 0.00 0.00 0.00 82 1013.2
20260508053030 69 20 0.0 0.0 0.00 0.00 0.00 83 1013.0
20260508051529 70 19 0.0 0.0 0.00 0.00 0.00 82 1013.0
20260508050042 70 17 0.0 0.0 0.00 0.00 0.00 82 1013.1
20260508044518 70 18 0.0 0.0 0.00 0.00 0.00 82 1013.1
20260508043013 70 27 0.0 0.0 0.00 0.00 0.00 82 1013.0
20260508041537 70 18 0.0 0.0 0.00 0.00 0.00 81 1013.1
20260508040015 71 21 0.0 0.0 0.00 0.00 0.00 82 1013.1
20260508034517 71 18 0.0 0.0 0.00 0.00 0.00 81 1013.6
20260508033019 72 18 0.0 0.0 0.00 0.00 0.00 80 1013.7
20260508031539 72 22 0.0 0.0 0.00 0.00 0.00 81 1013.9
20260508030012 72 17 0.0 0.0 0.00 0.00 0.00 80 1013.8
20260508024518 72 15 0.0 0.0 0.00 0.00 0.00 81 1013.4
20260508023019 73 19 0.0 0.0 0.00 0.00 0.00 81 1013.8
20260508021517 73 22 0.0 0.0 0.00 0.00 0.00 79 1013.5
20260508020017 73 28 0.0 0.0 0.00 0.00 0.00 81 1013.1
20260508014513 73 30 0.0 0.0 0.00 0.00 0.00 79 1013.2
20260508013014 74 32 0.0 0.0 0.00 0.00 0.00 80 1013.1
20260508011518 74 32 0.0 0.0 0.00 0.00 0.00 79 1013.3
20260508010040 74 36 0.0 0.0 0.00 0.00 0.00 75 1013.0
20260508004521 75 344 0.0 0.0 0.00 0.00 0.00 77 1013.2
20260508003020 75 17 0.0 0.0 0.00 0.00 0.00 78 1013.1
20260508001537 75 24 0.0 0.0 0.00 0.00 0.00 78 1013.2
20260508000016 76 17 0.0 0.0 0.00 0.00 0.00 81 1013.4
20260507234543 76 32 0.0 0.0 0.00 0.00 0.00 79 1013.0
20260507233030 77 28 0.0 0.0 0.00 0.00 0.00 79 1013.0
20260507231532 77 27 0.0 0.0 0.00 0.00 0.00 77 1012.9
20260507230013 77 29 0.0 0.0 0.00 0.00 0.00 80 1012.7
20260507224522 77 5 0.0 0.0 0.00 0.00 0.00 78 1012.8
20260507223026 78 5 0.0 0.0 0.00 0.00 0.00 76 1012.6
20260507221550 80 14 0.0 0.0 0.00 0.00 0.00 69 1012.9
20260507220019 80 36 0.0 0.0 0.00 0.00 0.00 71 1013.1
20260507214522 80 19 0.0 0.0 0.00 0.00 0.00 71 1013.0
20260507213025 80 19 0.0 0.0 0.00 0.00 0.00 74 1013.2
20260507211524 79 22 0.0 0.0 0.00 0.00 0.00 72 1013.3
20260507210038 78 5 0.0 0.0 0.00 0.00 0.00 74 1013.3
20260507204528 77 32 0.0 0.0 0.00 0.00 0.00 77 1013.5
20260507203029 77 24 0.0 0.0 0.00 0.00 0.00 72 1013.7
20260507201530 78 22 0.0 0.0 0.00 0.00 0.00 77 1013.7
20260507200047 78 38 0.0 0.0 0.00 0.00 0.00 76 1014.0
20260507194530 77 360 0.0 0.0 0.00 0.00 0.00 72 1014.2
20260507193023 77 45 0.0 0.0 0.00 0.00 0.00 75 1014.3
20260507191523 77 355 0.0 0.0 0.00 0.00 0.00 73 1014.6
20260507190022 76 355 0.0 0.0 0.00 0.00 0.00 71 1014.6
20260507184528 76 30 0.0 0.0 0.00 0.00 0.00 76 1014.7
20260507183013 76 12 0.0 0.0 0.00 0.00 0.00 76 1014.7
20260507181524 75 11 0.0 0.0 0.00 0.00 0.00 76 1015.0
20260507180030 73 26 0.0 0.0 0.00 0.00 0.00 80 1015.1
20260507174557 73 30 0.0 0.0 0.00 0.00 0.00 79 1015.4
20260507173057 73 5 0.0 0.0 0.00 0.00 0.00 76 1015.5
20260507171513 72 360 0.0 0.0 0.00 0.00 0.00 77 1015.8
20260507170018 72 20 0.0 0.0 0.00 0.00 0.00 80 1015.7
20260507164526 70 43 0.0 0.0 0.00 0.00 0.00 80 1015.5
20260507163031 69 5 0.0 0.0 0.00 0.00 0.00 79 1015.2
20260507161529 68 28 0.0 0.0 0.00 0.00 0.00 81 1015.5
20260507160023 67 26 0.0 0.0 0.00 0.00 0.00 82 1015.8
20260507154523 66 51 0.0 0.0 0.00 0.00 0.00 81 1015.8
20260507153028 66 329 0.0 0.0 0.00 0.00 0.00 82 1015.9
20260507151532 65 16 0.0 0.0 0.00 0.00 0.00 85 1015.7
20260507150032 64 336 0.0 0.0 0.00 0.00 0.00 85 1015.8
20260507144511 64 22 0.0 0.0 0.00 0.00 0.00 85 1015.4
20260507143021 64 41 0.0 3.0 0.00 0.00 0.00 86 1015.2
20260507141550 64 29 1.0 4.0 0.00 0.00 0.00 87 1015.4
20260507140035 64 5 2.0 4.0 0.00 0.00 0.00 86 1015.7
20260507134515 64 338 0.0 2.0 0.00 0.00 0.00 87 1015.6
20260507133021 64 327 0.0 0.0 0.00 0.00 0.00 86 1015.9
20260507131526 64 5 0.0 0.0 0.00 0.00 0.00 86 1015.8